Regional Weather Roundup
Issued by NWS Charleston, WV

Home | Current Version | Previous Version | Graphics & Text | Print | Product List | Glossary On
Versions: 1 2 3 4 5 6 7 8 9 10 11 12 13 14 15 16 17 18 19 20 21 22 23 24 25 26 27 28 29 30 31 32 33 34 35 36 37 38 39 40 41 42 43 44 45 46 47 48 49 50
000
ASUS41 KRLX 121310
RWRRLX
West Virginia Regional Weather Roundup
National Weather Service Charleston WV
800 AM EST FRI FEB 12 2016

Note: "fair" indicates few or no clouds below 12,000 feet with no
significant weather and/or obstructions to visibility.

WVZ003-121400-
Northern Panhandle of West Virginia

CITY           SKY/WX    TMP DP  RH WIND       PRES   REMARKS
WHEELING       CLOUDY     9   5  84 S5        30.16F WCI   1
$$

WVZ009-121400-
Northwest West Virginia

CITY           SKY/WX    TMP DP  RH WIND       PRES   REMARKS
PARKERSBURG    CLOUDY     5   2  87 CALM      30.23F
$$

WVZ006-121400-
Western West Virginia

CITY           SKY/WX    TMP DP  RH WIND       PRES   REMARKS
HUNTINGTON     CLOUDY    18   8  65 NE3       30.18F
$$

WVZ015-121400-
West Central West Virginia

CITY           SKY/WX    TMP DP  RH WIND       PRES   REMARKS
CHARLESTON     MOCLDY    14   9  80 NE3       30.18F
$$

WVZ022-031-121400-
North Central West Virginia

CITY           SKY/WX    TMP DP  RH WIND       PRES   REMARKS
CLARKSBURG     MOCLDY     4   0  83 CALM      30.18F
MORGANTOWN     MOCLDY     3  -2  79 CALM      30.18F
$$

WVZ025-035-042-045-121400-
Southern West Virginia

CITY           SKY/WX    TMP DP  RH WIND       PRES   REMARKS
BECKLEY        CLOUDY    16   8  71 E3        30.07F
LOGAN          CLOUDY    19  12  73 CALM      30.12S
BLUEFIELD      CLOUDY    15   8  73 CALM      30.05F
LEWISBURG      CLOUDY    14   8  77 NE3       30.12S
$$

WVZ047-121400-
Northern Mountains of West Virginia

CITY           SKY/WX    TMP DP  RH WIND       PRES   REMARKS
ELKINS         CLOUDY     4  -1  80 CALM      30.14F
$$

WVZ052-121400-
Eastern Panhandle of West Virginia

CITY           SKY/WX    TMP DP  RH WIND       PRES   REMARKS
MARTINSBURG      N/A     15   6  67 CALM      30.26S
PETERSBURG     CLOUDY    12   7  81 CALM      30.24S
$$



USA.gov is the U.S. government's official web portal to all federal, state and local government web resources and services.